Terminal Aerodrome Forecast
Issued by NWS

Home | Current Version | Previous Version | Graphics & Text | Print | Product List | Glossary On
Versions: 1 2 3 4 5 6 7 8 9 10 11 12 13 14 15 16 17 18 19 20 21 22 23 24 25 26 27 28 29
000
FTUS42 KMHX 142100 AAA
TAFOAJ
TAF AMD
KOAJ 142157Z 1422/1518 35004KT P6SM FEW020 OVC030
     FM150600 01003KT 4SM BR SCT008 BKN020
     FM151300 04005KT P6SM SCT020 BKN040
      AMD LTD TO CLD VIS AND WIND=

USA.gov is the U.S. government's official web portal to all federal, state and local government web resources and services.